KC5NAM Weather Reports


time (UTC)temp
C
wind
direction
speed
KPH
gust
KPH
rain 1hr
cm
rain 24hr
cm
rain mn
cm
humidity
%
barometer
mb
20260510130536 22 0 3.2 11.3 0.00 0.10 0.00 93 1015.7
20260510130051 22 0 1.6 9.7 0.00 0.10 0.00 93 1015.6
20260510125536 22 0 0.0 8.0 0.00 0.10 0.00 93 1015.5
20260510125036 21 0 0.0 6.4 0.00 0.10 0.00 93 1015.5
20260510124551 21 0 0.0 3.2 0.00 0.10 0.00 93 1015.3
20260510124039 21 0 0.0 3.2 0.00 0.10 0.00 93 1015.5
20260510123537 21 0 0.0 1.6 0.00 0.10 0.00 94 1015.4
20260510123042 21 0 0.0 1.6 0.00 0.10 0.00 93 1015.4
20260510122536 21 0 0.0 1.6 0.00 0.10 0.00 93 1015.3
20260510122036 21 194 0.0 4.8 0.00 0.10 0.00 94 1015.4
20260510121542 21 0 0.0 6.4 0.00 0.10 0.00 93 1015.4
20260510121036 21 0 0.0 6.4 0.00 0.10 0.00 93 1015.3
20260510120537 21 0 0.0 6.4 0.00 0.10 0.00 93 1015.4
20260510120040 20 0 0.0 3.2 0.00 0.10 0.00 93 1015.3
20260510115534 20 0 0.0 3.2 0.00 0.10 0.00 93 1015.2
20260510115034 20 0 0.0 1.6 0.00 0.10 0.00 93 1015.1
20260510114550 20 0 0.0 1.6 0.00 0.10 0.00 93 1015.3
20260510114035 20 0 0.0 0.0 0.00 0.10 0.00 93 1015.3
20260510113534 20 0 0.0 1.6 0.00 0.10 0.00 92 1015.2
20260510113045 20 0 0.0 1.6 0.00 0.10 0.00 92 1015.4
20260510112534 20 0 0.0 0.0 0.00 0.10 0.00 91 1015.3
20260510112035 20 0 0.0 0.0 0.00 0.10 0.00 90 1015.3
20260510111542 20 0 0.0 0.0 0.00 0.10 0.00 91 1015.3
20260510111034 20 0 0.0 0.0 0.00 0.10 0.00 91 1015.3
20260510110535 20 0 0.0 0.0 0.00 0.10 0.00 90 1015.3
20260510110042 20 0 0.0 0.0 0.00 0.10 0.00 90 1015.3
20260510105534 20 0 0.0 0.0 0.00 0.10 0.00 90 1015.3
20260510105033 20 0 0.0 0.0 0.00 0.10 0.00 90 1015.3
20260510104605 20 0 0.0 0.0 0.00 0.10 0.00 90 1015.1
20260510104037 20 0 0.0 0.0 0.00 0.10 0.00 90 1015.1
20260510103534 20 0 0.0 0.0 0.00 0.10 0.00 89 1015.2
20260510103052 20 0 0.0 0.0 0.00 0.10 0.00 89 1015.3
20260510102534 20 0 0.0 0.0 0.00 0.10 0.00 89 1015.2
20260510102033 20 0 0.0 1.6 0.00 0.10 0.00 89 1015.3
20260510101546 20 0 0.0 1.6 0.00 0.10 0.00 89 1015.3
20260510101034 20 0 0.0 0.0 0.00 0.10 0.00 89 1015.3
20260510100535 21 0 0.0 6.4 0.00 0.10 0.00 88 1015.3
20260510100053 21 0 0.0 6.4 0.00 0.10 0.00 88 1015.3
20260510095535 21 161 0.0 4.8 0.00 0.10 0.00 88 1015.2
20260510095034 21 0 0.0 4.8 0.00 0.10 0.00 88 1015.3
20260510094546 21 0 0.0 4.8 0.00 0.10 0.00 88 1015.5
20260510094036 21 0 0.0 4.8 0.00 0.10 0.00 87 1015.5
20260510093534 21 0 0.0 4.8 0.00 0.10 0.00 87 1015.4
20260510093042 21 0 0.0 3.2 0.00 0.10 0.00 87 1015.3
20260510092536 21 0 0.0 3.2 0.00 0.10 0.00 86 1015.3
20260510092034 21 0 0.0 3.2 0.00 0.10 0.00 86 1015.2
20260510091537 21 0 0.0 1.6 0.00 0.10 0.00 86 1015.2
20260510091034 21 0 0.0 0.0 0.00 0.10 0.00 86 1015.1
20260510090534 21 0 0.0 1.6 0.00 0.10 0.00 86 1015.1
20260510090045 21 0 0.0 1.6 0.00 0.10 0.00 86 1015.2
20260510085538 21 0 0.0 1.6 0.00 0.10 0.00 86 1015.1
20260510085035 21 0 0.0 1.6 0.00 0.10 0.00 86 1015.0
20260510084551 21 0 0.0 1.6 0.00 0.10 0.00 86 1015.0
20260510084036 21 0 0.0 9.7 0.00 0.10 0.00 86 1015.1
20260510083536 21 0 0.0 9.7 0.00 0.10 0.00 87 1015.2
20260510083044 21 0 0.0 4.8 0.00 0.10 0.00 87 1015.1
20260510082536 21 0 0.0 1.6 0.00 0.10 0.00 86 1015.1
20260510082037 21 0 0.0 1.6 0.00 0.10 0.00 86 1015.1
20260510081539 21 0 0.0 1.6 0.00 0.10 0.00 85 1015.1
20260510081037 21 0 0.0 0.0 0.00 0.10 0.00 85 1015.1
20260510080537 21 0 0.0 0.0 0.00 0.10 0.00 85 1015.1
20260510080047 22 0 0.0 0.0 0.00 0.10 0.00 85 1015.0
20260510075536 22 0 0.0 0.0 0.00 0.10 0.00 85 1015.0
20260510075036 22 0 0.0 0.0 0.00 0.10 0.00 85 1014.9
20260510074616 22 0 0.0 0.0 0.00 0.10 0.00 84 1015.0
20260510074036 22 0 0.0 1.6 0.00 0.10 0.00 84 1014.9
20260510073535 22 0 0.0 4.8 0.00 0.10 0.00 84 1014.8
20260510073048 22 0 0.0 4.8 0.00 0.10 0.00 84 1014.9
20260510072536 22 155 0.0 4.8 0.00 0.10 0.00 84 1015.0
20260510072036 22 0 0.0 4.8 0.00 0.10 0.00 84 1015.0
20260510071554 22 0 0.0 4.8 0.00 0.10 0.00 84 1015.0
20260510071038 22 0 0.0 4.8 0.00 0.10 0.00 83 1015.0
20260510070536 22 0 0.0 4.8 0.00 0.10 0.00 83 1015.1
20260510070042 22 0 0.0 4.8 0.00 0.10 0.00 83 1015.0
20260510065536 22 0 0.0 4.8 0.00 0.10 0.00 83 1015.0
20260510065036 22 0 0.0 1.6 0.00 0.10 0.00 82 1015.1
20260510064603 22 0 0.0 1.6 0.00 0.10 0.00 82 1015.1
20260510064036 22 0 0.0 3.2 0.00 0.10 0.00 82 1015.2
20260510063536 23 0 0.0 3.2 0.00 0.10 0.00 81 1015.1
20260510063045 23 0 0.0 1.6 0.00 0.10 0.00 81 1015.1
20260510062536 23 0 0.0 0.0 0.00 0.10 0.00 81 1015.2
20260510062036 23 0 0.0 1.6 0.00 0.10 0.00 80 1015.3
20260510061553 23 0 0.0 3.2 0.00 0.10 0.00 80 1015.3
20260510061037 23 0 0.0 3.2 0.00 0.10 0.00 80 1015.3
20260510060537 23 0 0.0 3.2 0.00 0.10 0.00 79 1015.3
20260510060053 23 0 0.0 3.2 0.00 0.10 0.00 79 1015.3
20260510055601 23 0 0.0 8.0 0.00 0.10 0.00 79 1015.3
20260510055034 23 0 0.0 8.0 0.00 0.10 0.00 79 1015.3
20260510054540 23 169 0.0 8.0 0.00 0.10 0.00 78 1015.1
20260510054034 23 0 0.0 8.0 0.00 0.10 0.00 78 1015.1
20260510053534 23 155 1.6 8.0 0.00 0.10 0.00 78 1015.2
20260510053041 24 0 1.6 6.4 0.00 0.10 0.00 78 1015.2
20260510052534 24 0 0.0 4.8 0.00 0.10 0.00 78 1015.3
20260510052034 24 155 1.6 8.0 0.00 0.10 0.00 78 1015.3
20260510051554 24 155 0.0 8.0 0.00 0.10 0.00 78 1015.3
20260510051033 24 0 0.0 8.0 0.00 0.10 0.00 77 1015.1
20260510050533 24 150 0.0 8.0 0.00 0.10 0.00 77 1015.1
20260510050047 24 151 1.6 8.0 0.00 0.10 0.00 77 1015.1
20260510045535 25 165 1.6 11.3 0.00 0.10 0.10 76 1015.1
20260510045034 25 153 3.2 11.3 0.00 0.10 0.10 76 1015.1
20260510044550 25 134 0.0 8.0 0.00 0.10 0.10 76 1015.1
20260510044034 25 132 0.0 6.4 0.00 0.10 0.10 76 1015.1
20260510043534 25 0 0.0 1.6 0.00 0.10 0.10 75 1015.0
20260510043047 25 0 0.0 4.8 0.00 0.10 0.10 74 1014.9
20260510042535 25 0 0.0 6.4 0.00 0.10 0.10 74 1014.9
20260510042034 25 162 1.6 6.4 0.00 0.10 0.10 74 1014.9
20260510041552 25 0 0.0 3.2 0.00 0.10 0.10 74 1014.9
20260510041034 25 162 0.0 4.8 0.00 0.10 0.10 73 1015.0
20260510040534 25 155 0.0 4.8 0.00 0.10 0.10 73 1014.9
20260510040049 25 0 0.0 9.7 0.00 0.10 0.10 73 1014.9
20260510035533 26 131 0.0 11.3 0.00 0.10 0.10 73 1014.9
20260510035034 26 126 1.6 12.9 0.00 0.10 0.10 72 1014.7
20260510034542 26 155 4.8 12.9 0.00 0.10 0.10 72 1014.6
20260510034034 26 145 3.2 9.7 0.00 0.10 0.10 72 1014.5
20260510033536 26 161 0.0 9.7 0.00 0.10 0.10 72 1014.6
20260510033041 26 0 0.0 9.7 0.00 0.10 0.10 72 1014.5
20260510032534 26 154 1.6 11.3 0.00 0.10 0.10 72 1014.3
20260510032036 26 0 1.6 14.5 0.00 0.10 0.10 71 1014.4
20260510031540 26 0 1.6 14.5 0.00 0.10 0.10 71 1014.3
20260510031035 26 115 3.2 14.5 0.00 0.10 0.10 71 1014.2
20260510030534 26 142 1.6 12.9 0.00 0.10 0.10 71 1014.1
20260510030046 26 0 0.0 6.4 0.00 0.10 0.10 71 1014.1
20260510025534 26 82 1.6 6.4 0.00 0.10 0.10 70 1014.0
20260510025036 26 90 1.6 6.4 0.00 0.10 0.10 70 1013.9
20260510024554 26 0 1.6 6.4 0.00 0.10 0.10 71 1013.9
20260510024035 26 0 1.6 6.4 0.00 0.10 0.10 71 1013.9
20260510023535 27 0 0.0 6.4 0.00 0.10 0.10 71 1013.8
20260510023043 27 92 0.0 6.4 0.00 0.10 0.10 70 1013.8
20260510022536 27 0 0.0 6.4 0.00 0.10 0.10 70 1013.8
20260510022037 27 67 0.0 6.4 0.00 0.10 0.10 70 1013.7
20260510021541 27 107 0.0 6.4 0.00 0.10 0.10 70 1013.7
20260510021037 27 86 0.0 3.2 0.00 0.10 0.10 69 1013.7
20260510020536 27 0 0.0 4.8 0.00 0.10 0.10 69 1013.6
20260510020052 27 0 0.0 4.8 0.00 0.10 0.10 69 1013.6
20260510015536 27 0 0.0 4.8 0.00 0.10 0.10 68 1013.5
20260510015036 28 0 0.0 1.6 0.00 0.10 0.10 68 1013.4
20260510014539 28 0 0.0 1.6 0.00 0.10 0.10 68 1013.4
20260510014036 28 0 0.0 3.2 0.00 0.10 0.10 67 1013.3
20260510013537 28 0 0.0 4.8 0.00 0.10 0.10 66 1013.1
20260510013055 28 0 0.0 4.8 0.00 0.10 0.10 65 1013.0
20260510012539 29 70 0.0 3.2 0.00 0.10 0.10 65 1013.0
20260510012037 29 0 0.0 3.2 0.00 0.10 0.10 64 1012.9
20260510011543 29 0 0.0 3.2 0.00 0.10 0.10 63 1012.8
20260510011036 30 0 0.0 3.2 0.00 0.10 0.10 62 1012.8
20260510010536 30 0 0.0 3.2 0.00 0.10 0.10 62 1012.8
20260510005536 30 0 0.0 4.8 0.00 0.10 0.10 61 1012.6
20260510005036 30 0 0.0 4.8 0.00 0.10 0.10 60 1012.5
20260510004540 30 0 0.0 4.8 0.00 0.10 0.10 60 1012.5
20260510004036 30 0 0.0 9.7 0.00 0.10 0.10 59 1012.4
20260510003536 30 132 1.6 9.7 0.00 0.10 0.10 58 1012.4
20260510003050 31 0 0.0 12.9 0.00 0.10 0.10 58 1012.5
20260510002536 31 0 0.0 12.9 0.00 0.10 0.10 57 1012.4
20260510002036 31 0 3.2 12.9 0.00 0.10 0.10 56 1012.5
20260510001545 31 156 1.6 11.3 0.00 0.10 0.10 55 1012.4
20260510001040 31 150 3.2 11.3 0.00 0.10 0.10 55 1012.4
20260510000540 31 80 3.2 14.5 0.00 0.10 0.10 54 1012.4
20260510000046 31 155 6.4 14.5 0.00 0.10 0.10 53 1012.1
20260509235537 31 140 6.4 12.9 0.00 0.10 0.10 53 1012.2
20260509235036 31 153 4.8 17.7 0.00 0.10 0.10 52 1012.1
20260509234601 32 0 6.4 17.7 0.00 0.10 0.10 52 1012.1
20260509234039 32 160 9.7 17.7 0.00 0.10 0.10 51 1012.0
20260509233539 32 186 6.4 16.1 0.00 0.10 0.10 51 1011.9
20260509233040 32 167 6.4 16.1 0.00 0.10 0.10 49 1012.0
20260509232540 32 91 4.8 14.5 0.00 0.10 0.10 49 1012.0
20260509232036 32 130 4.8 19.3 0.00 0.10 0.10 51 1012.0
20260509231540 32 164 8.0 19.3 0.00 0.10 0.10 50 1011.9
20260509231036 32 142 6.4 16.1 0.00 0.10 0.10 50 1012.0
20260509230540 33 143 6.4 16.1 0.00 0.10 0.10 50 1012.3
20260509230046 33 164 6.4 16.1 0.00 0.10 0.10 50 1012.4
20260509225537 33 157 4.8 16.1 0.00 0.10 0.10 50 1012.4
20260509225040 33 148 4.8 12.9 0.00 0.10 0.10 48 1012.5
20260509224541 33 115 6.4 16.1 0.00 0.10 0.10 49 1012.4
20260509224037 34 146 4.8 16.1 0.00 0.10 0.10 49 1012.3
20260509223537 34 156 3.2 12.9 0.00 0.10 0.10 47 1012.2
20260509223041 34 147 6.4 12.9 0.00 0.10 0.10 46 1012.2
20260509222536 34 180 3.2 12.9 0.00 0.10 0.10 47 1012.2
20260509222036 34 153 4.8 12.9 0.00 0.10 0.10 48 1012.2
20260509221607 34 148 1.6 12.9 0.00 0.10 0.10 47 1012.1
20260509221037 34 162 4.8 14.5 0.00 0.10 0.10 47 1012.2
20260509220536 34 165 4.8 16.1 0.00 0.10 0.10 47 1012.2
20260509220043 34 157 3.2 16.1 0.00 0.10 0.10 47 1012.2
20260509215536 34 0 0.0 6.4 0.00 0.10 0.10 47 1012.3
20260509215036 35 0 0.0 6.4 0.00 0.10 0.10 47 1012.3
20260509214550 35 0 0.0 4.8 0.00 0.10 0.10 45 1012.3
20260509214039 35 0 0.0 9.7 0.00 0.10 0.10 46 1012.4
20260509213536 35 69 1.6 9.7 0.00 0.10 0.10 46 1012.4
20260509213041 35 0 1.6 8.0 0.00 0.10 0.10 47 1012.4
20260509212539 35 0 1.6 11.3 0.00 0.10 0.10 47 1012.3
20260509212039 35 0 1.6 11.3 0.00 0.10 0.10 48 1012.4
20260509211546 34 0 1.6 11.3 0.00 0.10 0.10 47 1012.4
20260509211036 34 161 4.8 12.9 0.00 0.10 0.10 48 1012.5
20260509210536 34 194 4.8 12.9 0.00 0.10 0.10 48 1012.5
20260509210054 34 215 3.2 9.7 0.00 0.10 0.10 49 1012.6
20260509205535 34 0 1.6 11.3 0.00 0.10 0.10 47 1012.6
20260509205035 35 152 3.2 11.3 0.00 0.10 0.10 48 1012.7
20260509204541 34 0 0.0 4.8 0.00 0.10 0.10 48 1012.8
20260509204036 34 64 1.6 4.8 0.00 0.10 0.10 49 1012.9
20260509203537 33 76 1.6 6.4 0.00 0.10 0.10 51 1012.9
20260509203045 33 0 0.0 6.4 0.00 0.10 0.10 50 1013.0
20260509202552 33 0 0.0 6.4 0.00 0.10 0.10 52 1013.1
20260509202037 33 350 1.6 6.4 0.00 0.10 0.10 53 1013.2
20260509201550 33 303 0.0 6.4 0.00 0.10 0.10 52 1013.3
20260509201036 33 150 0.0 11.3 0.00 0.10 0.10 53 1013.3
20260509200536 32 0 1.6 11.3 0.00 0.10 0.10 54 1013.4
20260509200050 32 0 1.6 9.7 0.00 0.10 0.10 54 1013.5
20260509195537 32 0 0.0 9.7 0.00 0.10 0.10 53 1013.6
20260509195041 33 0 1.6 9.7 0.00 0.10 0.10 53 1013.5
20260509194544 33 237 1.6 8.0 0.00 0.10 0.10 51 1013.7
20260509194036 33 248 0.0 8.0 0.00 0.10 0.10 52 1013.7
20260509193536 33 0 3.2 8.0 0.00 0.10 0.10 52 1013.8
20260509193046 33 232 1.6 8.0 0.00 0.10 0.10 53 1013.8
20260509192535 33 273 1.6 8.0 0.00 0.10 0.10 51 1013.9
20260509192045 32 0 0.0 6.4 0.00 0.10 0.10 55 1014.0
20260509191601 32 5 0.0 8.0 0.00 0.10 0.10 53 1014.1
20260509191036 32 292 0.0 11.3 0.00 0.10 0.10 55 1014.2
20260509190539 32 319 3.2 11.3 0.00 0.10 0.10 53 1014.2
20260509190047 32 248 3.2 9.7 0.00 0.10 0.10 55 1014.2
20260509185536 32 0 1.6 9.7 0.00 0.10 0.10 58 1014.1
20260509185036 32 92 0.0 11.3 0.00 0.10 0.10 60 1014.2
20260509184547 32 281 1.6 11.3 0.00 0.10 0.10 58 1014.2
20260509184036 32 271 1.6 11.3 0.00 0.10 0.10 58 1014.2
20260509183536 32 0 0.0 12.9 0.00 0.10 0.10 59 1014.2
20260509183049 32 0 0.0 16.1 0.00 0.10 0.10 59 1014.3
20260509182539 32 159 8.0 16.1 0.00 0.10 0.10 60 1014.4
20260509182035 31 167 0.0 8.0 0.00 0.10 0.10 61 1014.4
20260509181542 31 126 3.2 12.9 0.00 0.10 0.10 59 1014.4
20260509181036 32 163 3.2 12.9 0.00 0.10 0.10 61 1014.4
20260509180538 31 134 4.8 12.9 0.00 0.10 0.10 61 1014.6
20260509180042 31 177 0.0 11.3 0.00 0.10 0.10 62 1014.5
20260509175536 31 175 1.6 14.5 0.00 0.10 0.10 63 1014.6
20260509175036 31 186 4.8 14.5 0.00 0.10 0.10 63 1014.7
20260509174550 31 0 0.0 11.3 0.00 0.10 0.10 63 1014.5
20260509174037 31 180 1.6 11.3 0.00 0.10 0.10 66 1014.7
20260509173536 30 0 1.6 11.3 0.00 0.10 0.10 66 1014.9
20260509173056 30 0 0.0 8.0 0.00 0.10 0.10 67 1014.9
20260509172536 30 0 1.6 9.7 0.00 0.10 0.10 67 1015.0
20260509172035 30 0 0.0 19.3 0.00 0.10 0.10 69 1015.0
20260509171556 30 0 3.2 19.3 0.00 0.10 0.10 69 1015.0
20260509171033 29 159 4.8 12.9 0.00 0.10 0.10 74 1015.0
20260509170534 29 207 1.6 14.5 0.00 0.10 0.10 72 1015.1
20260509170045 29 313 4.8 14.5 0.00 0.10 0.10 73 1015.0
20260509165532 28 157 3.2 12.9 0.00 0.10 0.10 73 1014.9
20260509165036 28 169 1.6 14.5 0.00 0.10 0.10 74 1015.0
20260509164548 28 173 6.4 14.5 0.00 0.10 0.10 73 1014.9
20260509164034 28 145 1.6 14.5 0.00 0.10 0.10 74 1014.9
20260509163535 27 252 1.6 14.5 0.00 0.10 0.10 76 1015.0
20260509163048 27 251 3.2 12.9 0.00 0.10 0.10 77 1015.1
20260509162534 27 0 4.8 12.9 0.00 0.10 0.10 77 1014.9
20260509162036 27 247 1.6 11.3 0.00 0.10 0.10 79 1015.0
20260509161548 26 273 1.6 14.5 0.00 0.10 0.10 80 1014.9
20260509161034 26 213 1.6 14.5 0.00 0.10 0.10 82 1014.9
20260509160534 26 252 4.8 14.5 0.00 0.10 0.10 82 1014.7
20260509160045 26 248 1.6 12.9 0.00 0.10 0.10 83 1014.7
20260509155533 26 202 1.6 12.9 0.00 0.10 0.10 82 1014.8
20260509155033 26 252 1.6 14.5 0.00 0.10 0.10 85 1014.8
20260509154543 25 296 3.2 14.5 0.00 0.10 0.10 86 1014.8
20260509154033 25 0 0.0 8.0 0.00 0.10 0.10 89 1014.7
20260509153534 24 0 0.0 8.0 0.00 0.10 0.10 92 1014.5
20260509153043 24 0 0.0 3.2 0.00 0.10 0.10 92 1014.7
20260509152535 23 0 0.0 1.6 0.00 0.10 0.10 94 1014.7
20260509152038 23 0 0.0 0.0 0.00 0.10 0.10 95 1014.8
20260509151540 22 0 0.0 0.0 0.00 0.10 0.10 94 1015.1
20260509151035 22 0 0.0 0.0 0.00 0.10 0.10 94 1015.1
20260509150536 21 0 0.0 0.0 0.00 0.10 0.10 94 1015.1
20260509150039 21 0 0.0 0.0 0.00 0.10 0.10 93 1015.0
20260509145536 21 0 0.0 0.0 0.00 0.10 0.10 93 1014.7
20260509145034 21 0 0.0 0.0 0.00 0.10 0.10 93 1015.0
20260509144548 21 0 0.0 0.0 0.00 0.10 0.10 93 1015.0
20260509144034 20 0 0.0 1.6 0.05 0.10 0.10 92 1015.2
20260509143534 20 0 0.0 3.2 0.10 0.10 0.10 92 1015.5
20260509143045 20 0 0.0 3.2 0.10 0.10 0.10 92 1015.6
20260509142534 20 0 0.0 1.6 0.10 0.10 0.10 92 1015.6
20260509142034 20 0 0.0 0.0 0.10 0.10 0.10 92 1015.5
20260509141552 20 0 0.0 1.6 0.10 0.10 0.10 92 1015.8
20260509141033 20 0 0.0 1.6 0.10 0.10 0.10 91 1015.9
20260509140535 20 0 0.0 9.7 0.10 0.10 0.10 91 1015.8
20260509140050 20 0 0.0 9.7 0.10 0.10 0.10 90 1015.5
20260509135534 21 162 3.2 14.5 0.10 0.10 0.10 89 1015.5
20260509135034 21 179 1.6 16.1 0.10 0.10 0.10 89 1015.4
20260509134555 21 201 6.4 17.7 0.08 0.08 0.08 90 1014.9
20260509134038 22 169 6.4 17.7 0.05 0.05 0.05 93 1014.6
20260509133534 23 96 1.6 11.3 0.00 0.00 0.00 95 1014.8
20260509133048 23 140 0.0 3.2 0.00 0.00 0.00 95 1014.9
20260509132538 23 0 0.0 3.2 0.00 0.00 0.00 94 1014.7
20260509132037 23 71 0.0 1.6 0.00 0.00 0.00 94 1014.5
20260509131558 23 0 0.0 1.6 0.00 0.00 0.00 95 1014.7
20260509131034 23 0 0.0 0.0 0.00 0.00 0.00 94 1014.9